Flag for Belarus Weather past 2 weeks in Vitebsk, Belarus

Now
55 °F

Sunny.


Feels Like: 55 °F
Forecast: 58 / 70 °F
Wind: No wind

Location: Vitebsk

Current Time: Jun 30, 2015 at 6:49:00 AM

Latest Report: Jun 30, 2015 at 6:00 AM


Visibility: 10 mi

Pressure: 30.01 "Hg

Humidity: 77%

Dew point: 48 °F

Location of VitebskLocation

Historic Weather in Vitebsk — Graph

°F

Vitebsk temperature yesterday

Maximum temperature yesterday: 73 °F (at 4:00 PM)
Minimum temperature yesterday: 54 °F (at 6:00 AM)
Average temperature yesterday: 69 °F

Past Weeks' High & Low Weather Summary

 TemperatureHumidityPressure
High73 °F (Jun 15, 3:00 PM)100% (Jun 22, 6:00 AM)30.09 "Hg (Jun 22, 6:00 AM)
Low48 °F (Jun 18, 6:00 AM)28% (Jun 16, 4:00 PM)29.68 "Hg (Jun 14, 7:00 PM)
Average65 °F53%29.92 "Hg
* Reported Jun 14 7:00 PM — Jun 29 7:00 PM, Vitebsk, Weather by CustomWeather, © 2015

Note: Actual official high and low records may vary slightly from our data, if they occured in-between our weather recording intervals... More about our weather records

Advertising

Vitebsk weather history for previous 24 hours

 ConditionsComfort  
Time TempWeatherWind HumidityBarometerVisibility
7:00 PM
Mon, Jun 29
70 °FScattered clouds.6 mph40%30.01 "HgN/A
6:30 PM73 °FScattered clouds.6 mph36%30.01 "HgN/A
6:00 PM73 °FScattered clouds.6 mph36%30.01 "HgN/A
5:30 PM73 °FScattered clouds.8 mph38%30.01 "HgN/A
5:00 PM73 °FScattered clouds.8 mph38%30.01 "HgN/A
4:30 PM73 °FScattered clouds.10 mph38%30.04 "HgN/A
4:00 PM73 °FScattered clouds.8 mph38%30.04 "HgN/A
3:30 PM72 °FScattered clouds.8 mph38%30.04 "HgN/A
3:00 PM72 °FScattered clouds.8 mph38%30.04 "HgN/A
2:30 PM70 °FScattered clouds.8 mph38%30.04 "HgN/A
2:00 PM70 °FScattered clouds.8 mph38%30.04 "HgN/A
1:30 PM70 °FScattered clouds.8 mph40%30.04 "HgN/A
1:00 PM70 °FScattered clouds.8 mph40%30.04 "HgN/A
12:30 PM68 °FScattered clouds.8 mph43%30.04 "HgN/A
12:00 PM68 °FScattered clouds.8 mph43%30.04 "HgN/A
11:30 AM68 °FScattered clouds.8 mph46%30.04 "HgN/A
11:00 AM68 °FScattered clouds.6 mph46%30.04 "HgN/A
10:00 AM66 °FPassing clouds.6 mph49%30.04 "HgN/A
9:00 AM64 °FSunny.6 mph52%30.04 "Hg10 mi
8:00 AM61 °FSunny.6 mph63%30.04 "Hg10 mi
7:00 AM59 °FSunny.8 mph68%30.04 "Hg10 mi
6:00 AM54 °FSunny.8 mph77%30.04 "Hg10 mi
Weather by CustomWeather, © 2015

See weather overviewHow to use our weather pages